Weather History for Benton Harbor, MI

Change the Weather History Date:

Wednesday, December 12, 2012

  Actual Average Record
Temperature  
Mean Temperature 34 °F -  
Max Temperature 42 °F 39 °F 62 °F (1949)
Min Temperature 27 °F 23 °F -4 °F (1958)
Degree Days  
Heating Degree Days 30    
Moisture  
Dew Point 25 °F    
Average Humidity 70    
Maximum Humidity 85    
Minimum Humidity 53    
Precipitation  
Precipitation 0.00 in - - ()
Sea Level Pressure  
Sea Level Pressure 30.28 in    
Wind  
Wind Speed 8 mph (South)    
Max Wind Speed 14 mph    
Max Gust Speed -    
Visibility 10 miles    
Events      
Averages and records for this station are not official NWS values.
T = Trace of Precipitation, MM = Missing Value Source: NWS Daily Summary

Daily Weather History Graph

Daily Weather History Graph

Search for Another Location

Airport:

Trip Planner

Search our weather history database for the weather conditions in past years. The results will help you decide how hot, cold, wet, or windy it might be!

Date:

Astronomy

Dec. 12, 2012 Rise Set
Actual Time 8:05 AM EST 5:14 PM EST
Civil Twilight 7:33 AM EST 5:45 PM EST
Nautical Twilight 6:58 AM EST 6:21 PM EST
Astronomical Twilight 6:24 AM EST 6:55 PM EST
Moon 7:08 AM EST (12/12) 4:50 PM EST (12/12)
Length of Visible Light 10h 12m
Length of Day
9h 08m
Waning Crescent, 1% of the Moon is Illuminated
Dec 12
Waning Crescent
Dec 13
New
Dec 20
First Quarter
Dec 28
Full
Jan 4
Last Quarter

Hourly Weather History & Observations

Time (EST) Temp. Windchill Dew Point Humidity Pressure Visibility Wind Dir Wind Speed Gust Speed Precip Events Conditions
12:53 AM 30.9 °F 23.5 °F 25.0 °F 79% 30.17 in 10.0 mi South 8.1 mph - N/A   Overcast
1:53 AM 30.0 °F 22.4 °F 25.0 °F 82% 30.18 in 10.0 mi South 8.1 mph - N/A   Overcast
2:53 AM 30.9 °F 22.8 °F 26.1 °F 82% 30.20 in 10.0 mi South 9.2 mph - N/A   Overcast
3:53 AM 30.0 °F 24.1 °F 25.0 °F 82% 30.21 in 10.0 mi South 5.8 mph - N/A   Mostly Cloudy
4:53 AM 28.0 °F 20.0 °F 24.1 °F 85% 30.22 in 10.0 mi South 8.1 mph - N/A   Partly Cloudy
5:53 AM 28.0 °F 21.7 °F 23.0 °F 81% 30.24 in 10.0 mi South 5.8 mph - N/A   Clear
6:53 AM 27.0 °F 19.5 °F 21.9 °F 81% 30.26 in 10.0 mi South 6.9 mph - N/A   Clear
8:53 AM 27.0 °F 19.5 °F 21.9 °F 81% 30.30 in 7.0 mi South 6.9 mph - N/A   Clear
9:53 AM 30.0 °F 24.1 °F 23.0 °F 75% 30.31 in 10.0 mi South 5.8 mph - N/A   Clear
10:53 AM 35.1 °F 28.6 °F 24.1 °F 64% 30.33 in 10.0 mi SSW 8.1 mph - N/A   Clear
11:53 AM 37.9 °F 32.1 °F 25.0 °F 60% 30.33 in 10.0 mi South 8.1 mph - N/A   Clear
12:53 PM 39.9 °F 33.4 °F 25.0 °F 55% 30.32 in 10.0 mi South 10.4 mph - N/A   Clear
1:53 PM 41.0 °F 33.5 °F 25.0 °F 53% 30.31 in 10.0 mi South 13.8 mph - N/A   Clear
2:53 PM 42.1 °F 35.7 °F 26.1 °F 53% 30.30 in 10.0 mi SSW 11.5 mph - N/A   Clear
3:53 PM 42.1 °F 35.7 °F 26.1 °F 53% 30.29 in 10.0 mi South 11.5 mph - N/A   Clear
4:53 PM 39.9 °F 34.5 °F 27.0 °F 60% 30.30 in 10.0 mi South 8.1 mph - N/A   Clear
5:53 PM 37.9 °F 32.7 °F 27.0 °F 65% 30.31 in 10.0 mi South 6.9 mph - N/A   Clear
6:53 PM 36.0 °F 32.1 °F 26.1 °F 67% 30.31 in 10.0 mi South 4.6 mph - N/A   Clear
7:53 PM 36.0 °F 29.6 °F 26.1 °F 67% 30.32 in 10.0 mi SSE 8.1 mph - N/A   Clear
8:53 PM 34.0 °F 28.8 °F 25.0 °F 70% 30.34 in 10.0 mi SSE 5.8 mph - N/A   Clear
9:53 PM 34.0 °F 26.6 °F 26.1 °F 73% 30.33 in 10.0 mi SSE 9.2 mph - N/A   Clear
10:53 PM 34.0 °F 27.2 °F 26.1 °F 73% 30.32 in 10.0 mi SSE 8.1 mph - N/A   Clear
11:53 PM 33.1 °F 27.7 °F 25.0 °F 72% 30.32 in 10.0 mi SSE 5.8 mph - N/A   Clear